| time (UTC) | temp F | wind direction | speed MPH | gust MPH | rain 1hr in | rain 24hr in | rain mn in | humidity % | barometer mb |
| 20260509130028 | 37 | 202 | 0.0 | 0.0 | 0.00 | 0.00 | 0.00 | 94 | 1021.7 |
| 20260509124531 | 37 | 202 | 0.0 | 0.0 | 0.00 | 0.00 | 0.00 | 94 | 1021.6 |
| 20260509123106 | 38 | 202 | 0.0 | 0.0 | 0.00 | 0.00 | 0.00 | 94 | 1021.5 |
| 20260509121532 | 38 | 202 | 0.0 | 2.0 | 0.00 | 0.00 | 0.00 | 93 | 1021.5 |
| 20260509120030 | 38 | 202 | 0.0 | 2.0 | 0.00 | 0.00 | 0.00 | 93 | 1021.6 |
| 20260509113031 | 40 | 202 | 0.0 | 0.0 | 0.00 | 0.00 | 0.00 | 90 | 1021.7 |
| 20260509111531 | 40 | 202 | 0.0 | 3.0 | 0.00 | 0.00 | 0.00 | 89 | 1021.7 |
| 20260509104530 | 43 | 202 | 0.0 | 0.0 | 0.00 | 0.00 | 0.00 | 87 | 1021.8 |
| 20260509103033 | 43 | 202 | 0.0 | 0.0 | 0.00 | 0.00 | 0.00 | 87 | 1021.9 |
| 20260509101605 | 44 | 202 | 0.0 | 1.0 | 0.00 | 0.00 | 0.00 | 85 | 1021.9 |
| 20260509100108 | 46 | 142 | 1.0 | 3.0 | 0.00 | 0.00 | 0.00 | 82 | 1022.0 |
| 20260509094530 | 47 | 114 | 2.0 | 6.0 | 0.00 | 0.00 | 0.00 | 81 | 1022.0 |
| 20260509091532 | 48 | 186 | 7.0 | 12.0 | 0.00 | 0.00 | 0.00 | 82 | 1022.4 |
| 20260509090028 | 45 | 159 | 6.0 | 13.0 | 0.00 | 0.00 | 0.00 | 84 | 1022.4 |
| 20260509084531 | 46 | 169 | 5.0 | 7.0 | 0.00 | 0.00 | 0.00 | 82 | 1022.7 |
| 20260509083144 | 47 | 187 | 2.0 | 5.0 | 0.00 | 0.00 | 0.00 | 78 | 1022.9 |
| 20260509081530 | 49 | 157 | 1.0 | 6.0 | 0.00 | 0.00 | 0.00 | 75 | 1023.0 |
| 20260509080031 | 51 | 157 | 4.0 | 6.0 | 0.00 | 0.00 | 0.00 | 73 | 1023.1 |
| 20260509074532 | 53 | 178 | 6.0 | 12.0 | 0.00 | 0.00 | 0.00 | 71 | 1023.2 |
| 20260509073031 | 53 | 179 | 8.0 | 13.0 | 0.00 | 0.00 | 0.00 | 71 | 1023.2 |
| 20260509071530 | 52 | 157 | 8.0 | 12.0 | 0.00 | 0.00 | 0.00 | 72 | 1023.2 |
| 20260509061536 | 52 | 198 | 5.0 | 9.0 | 0.00 | 0.00 | 0.00 | 73 | 1023.4 |
| 20260509054529 | 52 | 157 | 3.0 | 4.0 | 0.00 | 0.00 | 0.00 | 73 | 1023.5 |
| 20260509050030 | 54 | 176 | 4.0 | 7.0 | 0.00 | 0.00 | 0.00 | 67 | 1023.4 |
| 20260509044528 | 54 | 173 | 5.0 | 10.0 | 0.00 | 0.00 | 0.00 | 66 | 1023.3 |
| 20260509043032 | 55 | 164 | 5.0 | 8.0 | 0.00 | 0.00 | 0.00 | 65 | 1023.0 |
| 20260509041604 | 55 | 162 | 6.0 | 11.0 | 0.00 | 0.00 | 0.00 | 64 | 1022.8 |
| 20260509040105 | 55 | 156 | 6.0 | 12.0 | 0.00 | 0.00 | 0.00 | 64 | 1022.7 |
| 20260509034531 | 56 | 151 | 5.0 | 11.0 | 0.00 | 0.00 | 0.00 | 62 | 1022.4 |
| 20260509033107 | 56 | 159 | 8.0 | 13.0 | 0.00 | 0.00 | 0.00 | 61 | 1022.2 |
| 20260509030029 | 58 | 197 | 7.0 | 12.0 | 0.00 | 0.00 | 0.00 | 58 | 1021.7 |
| 20260509024530 | 59 | 212 | 7.0 | 13.0 | 0.00 | 0.00 | 0.00 | 56 | 1021.7 |
| 20260509023031 | 59 | 222 | 8.0 | 16.0 | 0.00 | 0.00 | 0.00 | 55 | 1021.6 |
| 20260509021531 | 60 | 202 | 10.0 | 14.0 | 0.00 | 0.00 | 0.00 | 52 | 1021.4 |
| 20260509014530 | 62 | 214 | 8.0 | 18.0 | 0.00 | 0.00 | 0.00 | 48 | 1021.2 |
| 20260509010029 | 63 | 199 | 14.0 | 21.0 | 0.00 | 0.00 | 0.00 | 42 | 1021.2 |
| 20260509004532 | 63 | 207 | 13.0 | 24.0 | 0.00 | 0.00 | 0.00 | 41 | 1021.1 |
| 20260509003031 | 64 | 211 | 14.0 | 22.0 | 0.00 | 0.00 | 0.00 | 39 | 1021.1 |
| 20260509001530 | 64 | 200 | 14.0 | 23.0 | 0.00 | 0.00 | 0.00 | 38 | 1020.9 |
| 20260509000041 | 65 | 204 | 12.0 | 20.0 | 0.00 | 0.00 | 0.00 | 37 | 1020.8 |
| 20260508234529 | 65 | 215 | 12.0 | 21.0 | 0.00 | 0.00 | 0.00 | 36 | 1020.8 |
| 20260508233104 | 65 | 208 | 12.0 | 21.0 | 0.00 | 0.00 | 0.00 | 35 | 1020.7 |
| 20260508231525 | 65 | 204 | 13.0 | 22.0 | 0.00 | 0.00 | 0.00 | 35 | 1020.7 |
| 20260508230031 | 66 | 203 | 12.0 | 22.0 | 0.00 | 0.00 | 0.00 | 33 | 1020.6 |
| 20260508224646 | 66 | 219 | 12.0 | 24.0 | 0.00 | 0.00 | 0.00 | 32 | 1020.6 |
| 20260508223030 | 66 | 211 | 11.0 | 20.0 | 0.00 | 0.00 | 0.00 | 32 | 1020.5 |
| 20260508220030 | 65 | 219 | 13.0 | 21.0 | 0.00 | 0.00 | 0.00 | 33 | 1020.4 |
| 20260508214530 | 65 | 220 | 14.0 | 23.0 | 0.00 | 0.00 | 0.00 | 33 | 1020.4 |
| 20260508213032 | 64 | 227 | 14.0 | 22.0 | 0.00 | 0.00 | 0.00 | 34 | 1020.5 |
| 20260508211645 | 64 | 235 | 15.0 | 22.0 | 0.00 | 0.00 | 0.00 | 34 | 1020.4 |
| 20260508210031 | 64 | 241 | 14.0 | 25.0 | 0.00 | 0.00 | 0.00 | 35 | 1020.3 |
| 20260508203032 | 63 | 230 | 12.0 | 22.0 | 0.00 | 0.00 | 0.00 | 36 | 1020.3 |
| 20260508201530 | 63 | 237 | 14.0 | 24.0 | 0.00 | 0.00 | 0.00 | 37 | 1020.3 |
| 20260508200032 | 62 | 232 | 13.0 | 24.0 | 0.00 | 0.00 | 0.00 | 37 | 1020.2 |
| 20260508194615 | 62 | 233 | 14.0 | 25.0 | 0.00 | 0.00 | 0.00 | 38 | 1020.3 |
| 20260508193105 | 61 | 239 | 13.0 | 25.0 | 0.00 | 0.00 | 0.00 | 42 | 1020.3 |
| 20260508191529 | 58 | 345 | 7.0 | 24.0 | 0.00 | 0.00 | 0.00 | 55 | 1020.4 |
| 20260508190029 | 55 | 32 | 8.0 | 13.0 | 0.00 | 0.00 | 0.00 | 60 | 1020.3 |
| 20260508183030 | 54 | 16 | 8.0 | 14.0 | 0.00 | 0.00 | 0.00 | 65 | 1020.3 |
| 20260508181533 | 52 | 19 | 6.0 | 10.0 | 0.00 | 0.00 | 0.00 | 68 | 1020.2 |
| 20260508180031 | 51 | 25 | 8.0 | 13.0 | 0.00 | 0.00 | 0.00 | 68 | 1020.1 |
| 20260508174614 | 52 | 45 | 8.0 | 14.0 | 0.00 | 0.00 | 0.00 | 65 | 1020.1 |
| 20260508173030 | 55 | 63 | 4.0 | 7.0 | 0.00 | 0.00 | 0.00 | 52 | 1019.8 |
| 20260508171530 | 55 | 213 | 2.0 | 7.0 | 0.00 | 0.00 | 0.00 | 52 | 1019.7 |
| 20260508170030 | 55 | 200 | 5.0 | 12.0 | 0.00 | 0.00 | 0.00 | 53 | 1019.6 |
| 20260508164530 | 55 | 199 | 6.0 | 13.0 | 0.00 | 0.00 | 0.00 | 56 | 1019.6 |
| 20260508163030 | 54 | 225 | 11.0 | 19.0 | 0.00 | 0.00 | 0.00 | 58 | 1019.6 |
| 20260508161530 | 55 | 229 | 13.0 | 20.0 | 0.00 | 0.00 | 0.00 | 59 | 1019.6 |
| 20260508160029 | 55 | 220 | 14.0 | 22.0 | 0.00 | 0.00 | 0.00 | 61 | 1019.7 |
| 20260508154603 | 55 | 211 | 15.0 | 25.0 | 0.00 | 0.00 | 0.00 | 61 | 1019.6 |
| 20260508153030 | 55 | 216 | 16.0 | 24.0 | 0.00 | 0.00 | 0.00 | 62 | 1019.5 |
| 20260508151537 | 56 | 222 | 16.0 | 29.0 | 0.00 | 0.00 | 0.00 | 62 | 1019.2 |
| 20260508150035 | 56 | 214 | 13.0 | 23.0 | 0.00 | 0.00 | 0.00 | 62 | 1019.0 |
| 20260508144530 | 56 | 220 | 14.0 | 25.0 | 0.00 | 0.00 | 0.00 | 59 | 1018.8 |
| 20260508143030 | 55 | 235 | 8.0 | 20.0 | 0.00 | 0.00 | 0.00 | 56 | 1018.5 |
| 20260508141607 | 56 | 246 | 6.0 | 17.0 | 0.00 | 0.00 | 0.00 | 55 | 1018.4 |
| 20260508140038 | 56 | 252 | 6.0 | 14.0 | 0.00 | 0.00 | 0.00 | 55 | 1018.2 |
| 20260508134530 | 56 | 251 | 7.0 | 15.0 | 0.00 | 0.00 | 0.00 | 55 | 1018.0 |
| 20260508133032 | 56 | 236 | 6.0 | 17.0 | 0.00 | 0.00 | 0.00 | 56 | 1017.9 |
| 20260508131530 | 56 | 241 | 8.0 | 18.0 | 0.00 | 0.00 | 0.00 | 57 | 1017.8 |